Location: Chervonnoye
(48.6000°N, 34.4000°E)
Time: 20:56:51
(UTC+00:00)

CORIOLIS - Pass Details

Date: 23 November 2020
Orbit: 817 x 839 km, 98.7° (Epoch: 27 January)

Event Time Altitude Azimuth Distance (km) Brightness Sun altitude
Rises 14:49:52 0° 155° (SSE) 3,356 7.3 -9.1°
Reaches altitude 10° 14:52:12 10° 153° (SSE) 2,430 6.5 -9.4°
Maximum altitude 14:57:33 70° 71° (ENE) 889 4.1 -10.3°
Drops below altitude 10° 15:02:58 10° 349° (N) 2,460 6.5 -11.1°
Sets 15:05:21 0° 348° (NNW) 3,401 7.3 -11.5°
